"startDT [UTC]","vpos","CH4 [ppm]","stdev(CH4) [ppm]","CO2 [ppm]","stdev(CO2) [ppm]","H2O_reported [%]","stdev(H2O_reported)","CavityPressure [torr]","CavityTemp [C]","OutletValve","CH4_dry [ppm]","CO2_dry [ppm]","DasTemp [C]","EtalonTemp [C]","WarmBoxTemp [C]","MPVPosition","T_ECpre [C]","T_EC1 [C]","T_EC2 [C]","p_inlet [hPa]","p_in [hPa]","p_out [hPa]","T_inlet [C]","RH_inlet [%]","dwpt_inlet [C]","T_vent [C]","RH_vent [%]","dwpt_vent [C]","flow_vent [l min-1]","flow_inlet [l min-1]","dwpt_sample [C]","T_room [C]"
2015-09-05 00:00:00,0.0,1.91156,0.00127,387.457,0.072,1.2291,0.0051,140.001,45.000,31576.73809,1.93545,393.423,34.487,45.068,45.000,0.00,0.10,-272.74,-272.80,-9,517,-938,22.7,35.3,6.6,22.6,36.3,6.9,5.73,1.82,1.5,27.3
2015-09-05 00:01:00,0.0,1.91166,0.00093,387.400,0.065,1.2388,0.0046,139.998,45.000,31575.94097,1.93605,393.408,34.466,45.068,45.000,0.00,0.10,-272.75,-272.81,-10,518,-940,22.7,35.5,6.7,22.6,36.5,7.0,5.73,1.89,1.5,27.3
2015-09-05 00:02:00,0.0,1.91279,0.00166,387.339,0.102,1.2425,0.0058,139.999,45.000,31575.94026,1.93717,393.365,34.476,45.068,45.000,0.00,0.10,-272.75,-272.80,-11,519,-937,22.7,35.6,6.7,22.6,36.7,7.0,5.73,1.98,1.5,27.3
2015-09-05 00:03:00,0.0,1.91051,0.00098,387.509,0.044,1.2306,0.0040,140.000,45.000,31575.21533,1.93455,393.480,34.444,45.068,45.000,0.00,0.10,-272.74,-272.80,-11,518,-938,22.8,35.2,6.6,22.6,36.3,6.9,5.73,2.03,1.5,27.3
2015-09-05 00:04:00,0.0,1.91240,0.00099,387.453,0.047,1.2358,0.0036,139.999,45.000,31573.61240,1.93660,393.447,34.431,45.068,45.000,0.00,0.10,-272.74,-272.80,-11,517,-938,22.8,35.3,6.6,22.6,36.4,6.9,5.73,2.01,1.5,27.3
2015-09-05 00:05:00,0.0,1.91115,0.00125,387.553,0.071,1.2279,0.0040,140.000,45.000,31572.57604,1.93517,393.511,34.409,45.068,45.000,0.00,0.10,-272.74,-272.80,-11,518,-937,22.8,35.0,6.5,22.6,36.2,6.9,5.73,1.95,1.5,27.3
2015-09-05 00:06:00,0.0,1.91280,0.00089,387.401,0.059,1.2420,0.0045,140.001,45.000,31572.44791,1.93715,393.425,34.392,45.068,45.000,0.00,0.10,-272.74,-272.80,-12,518,-938,22.8,35.4,6.7,22.6,36.5,7.0,5.73,1.86,1.5,27.3
2015-09-05 00:07:00,0.0,1.91258,0.00106,387.468,0.043,1.2351,0.0032,140.002,45.000,31571.62352,1.93682,393.460,34.416,45.068,45.000,0.00,0.10,-272.74,-272.80,-12,518,-938,22.8,35.2,6.6,22.6,36.4,7.0,5.73,1.80,1.5,27.3
2015-09-05 00:08:00,0.0,1.91083,0.00179,387.509,0.101,1.2307,0.0061,139.998,45.000,31572.17171,1.93483,393.481,34.438,45.068,45.000,0.00,0.10,-272.74,-272.81,-12,518,-938,22.8,35.1,6.6,22.7,36.2,6.9,5.73,1.87,1.5,27.3
2015-09-05 00:09:00,0.0,1.91290,0.00112,387.450,0.075,1.2376,0.0038,140.000,45.000,31571.33251,1.93718,393.454,34.440,45.068,45.000,0.00,0.10,-272.74,-272.80,-12,518,-938,22.8,35.2,6.6,22.7,36.4,7.0,5.73,2.00,1.5,27.3
2015-09-05 00:10:00,0.0,1.91274,0.00159,387.490,0.072,1.2363,0.0061,139.997,45.000,31572.65790,1.93693,393.488,34.441,45.068,45.000,0.00,0.10,-272.74,-272.80,-12,518,-938,22.8,35.3,6.6,22.7,36.3,7.0,5.73,2.06,1.6,27.4
2015-09-05 00:11:00,0.0,1.91317,0.00097,387.428,0.041,1.2412,0.0035,139.999,45.000,31574.82033,1.93751,393.451,34.454,45.068,45.000,0.00,0.10,-272.74,-272.81,-12,518,-938,22.8,35.4,6.7,22.7,36.4,7.0,5.73,1.97,1.6,27.3
2015-09-05 00:12:00,0.0,1.91229,0.00118,387.560,0.062,1.2342,0.0041,140.002,45.000,31576.07263,1.93643,393.548,34.464,45.068,45.000,0.00,0.10,-272.74,-272.81,-12,518,-938,22.8,35.2,6.6,22.7,36.3,6.9,5.73,1.85,1.6,27.3
2015-09-05 00:13:00,0.0,1.91230,0.00136,387.541,0.081,1.2362,0.0061,140.001,45.000,31575.78108,1.93658,393.539,34.448,45.068,45.000,0.00,0.10,-272.73,-272.80,-12,518,-938,22.8,35.2,6.6,22.6,36.3,6.9,5.73,1.81,1.6,27.4
2015-09-05 00:14:00,0.0,1.91168,0.00138,387.586,0.072,1.2344,0.0056,139.997,45.000,31574.38867,1.93582,393.578,34.438,45.068,45.000,0.00,0.10,-272.74,-272.80,-11,518,-938,22.8,35.2,6.6,22.7,36.2,6.9,5.73,1.87,1.6,27.4
2015-09-05 00:15:00,0.0,1.91259,0.00100,387.567,0.064,1.2403,0.0036,139.998,45.000,31572.75946,1.93695,393.584,34.414,45.068,45.000,0.00,0.10,-272.75,-272.80,-11,518,-938,22.9,35.2,6.7,22.7,36.4,7.0,5.73,1.96,1.6,27.4
2015-09-05 00:16:00,0.0,1.91321,0.00107,387.523,0.053,1.2418,0.0048,139.998,45.000,31574.28843,1.93752,393.551,34.394,45.068,45.000,0.00,0.10,-272.74,-272.80,-12,518,-938,22.9,35.3,6.7,22.7,36.4,7.0,5.73,2.02,1.6,27.4
2015-09-05 00:17:00,0.0,1.91026,0.00095,387.721,0.071,1.2306,0.0060,140.003,45.000,31575.66071,1.93438,393.693,34.377,45.068,45.000,0.00,0.10,-272.74,-272.80,-12,518,-938,22.9,34.8,6.5,22.7,36.2,6.9,5.73,2.02,1.6,27.4
2015-09-05 00:18:00,0.0,1.91211,0.00148,387.597,0.092,1.2382,0.0068,140.000,45.000,31574.35924,1.93627,393.608,34.375,45.068,45.000,0.00,0.10,-272.74,-272.80,-12,518,-938,22.9,35.1,6.7,22.7,36.2,6.9,5.73,1.97,1.6,27.4
2015-09-05 00:19:00,0.0,1.91415,0.00216,387.472,0.098,1.2487,0.0069,139.998,45.000,31574.28420,1.93870,393.533,34.367,45.068,45.000,0.00,0.10,-272.74,-272.80,-12,518,-937,22.9,35.3,6.8,22.7,36.5,7.1,5.73,1.88,1.6,27.4
2015-09-05 00:20:00,0.0,1.91279,0.00188,387.583,0.107,1.2408,0.0051,139.997,45.000,31572.17689,1.93719,393.604,34.374,45.068,45.000,0.00,0.10,-272.74,-272.80,-12,518,-937,22.9,35.0,6.6,22.7,36.4,7.0,5.73,1.82,1.7,27.4
2015-09-05 00:21:00,0.0,1.91167,0.00138,387.734,0.067,1.2311,0.0054,139.999,45.000,31572.92666,1.93576,393.709,34.374,45.068,45.000,0.00,0.10,-272.74,-272.80,-12,518,-937,22.9,34.8,6.5,22.7,36.1,6.9,5.73,1.83,1.7,27.4
2015-09-05 00:22:00,0.0,1.91096,0.00081,387.715,0.087,1.2305,0.0056,139.999,45.000,31573.16684,1.93497,393.690,34.378,45.068,45.000,0.00,0.10,-272.74,-272.80,-12,518,-937,22.9,34.9,6.6,22.7,35.9,6.8,5.73,1.94,1.7,27.4
2015-09-05 00:23:00,0.0,1.91159,0.00124,387.654,0.092,1.2393,0.0062,139.999,45.000,31574.87662,1.93581,393.670,34.410,45.068,45.000,0.00,0.10,-272.74,-272.80,-12,518,-937,22.9,35.0,6.7,22.7,36.2,7.0,5.73,2.04,1.7,27.4
2015-09-05 00:24:00,0.0,1.91108,0.00134,387.707,0.093,1.2363,0.0069,139.996,45.000,31574.15297,1.93541,393.708,34.395,45.068,45.000,0.00,0.10,-272.73,-272.80,-12,518,-937,22.9,34.9,6.6,22.7,36.2,6.9,5.73,2.03,1.7,27.4
2015-09-05 00:25:00,0.0,1.91258,0.00147,387.662,0.096,1.2397,0.0075,140.000,45.000,31575.38080,1.93678,393.681,34.375,45.068,45.000,0.00,0.10,-272.74,-272.81,-11,518,-938,22.9,35.0,6.7,22.7,36.1,6.9,5.73,1.93,1.7,27.4
2015-09-05 00:26:00,0.0,1.91324,0.00213,387.592,0.097,1.2447,0.0064,139.998,45.000,31575.09527,1.93769,393.633,34.376,45.068,45.000,0.00,0.10,-272.73,-272.80,-11,518,-938,23.0,35.1,6.7,22.7,36.4,7.0,5.73,1.83,1.7,27.4
2015-09-05 00:27:00,0.0,1.91527,0.00152,387.425,0.141,1.2597,0.0124,140.001,45.000,31577.01959,1.93985,393.542,34.375,45.068,45.000,0.00,0.10,-272.73,-272.80,-11,518,-937,23.0,35.7,7.0,22.7,36.6,7.1,5.73,1.81,1.7,27.4
2015-09-05 00:28:00,0.0,1.91231,0.00179,387.607,0.148,1.2524,0.0102,139.998,45.000,31573.93540,1.93699,393.685,34.380,45.068,45.000,0.00,0.10,-272.74,-272.80,-12,518,-937,23.0,35.2,6.8,22.7,36.7,7.2,5.73,1.89,1.7,27.4
2015-09-05 00:29:00,0.0,1.91173,0.00116,387.766,0.053,1.2412,0.0039,139.999,45.000,31574.41560,1.93603,393.795,34.396,45.068,45.000,0.00,0.10,-272.75,-272.80,-12,518,-937,23.0,34.9,6.7,22.7,36.2,7.0,5.73,1.99,1.7,27.4
2015-09-05 00:30:00,0.0,1.91412,0.00134,387.619,0.070,1.2526,0.0044,139.998,45.000,31574.54380,1.93856,393.703,34.384,45.068,45.000,0.00,0.10,-272.74,-272.80,-12,518,-937,23.0,35.3,6.8,22.8,36.4,7.1,5.73,2.04,1.8,27.4
2015-09-05 00:31:00,0.0,1.91430,0.00209,387.607,0.102,1.2576,0.0058,140.001,45.000,31577.25260,1.93917,393.713,34.380,45.068,45.000,0.00,0.10,-272.74,-272.80,-12,519,-937,23.0,35.4,6.9,22.8,36.7,7.2,5.73,1.99,1.8,27.4
2015-09-05 00:32:00,0.0,1.91443,0.00111,387.662,0.070,1.2580,0.0055,140.000,45.000,31576.28804,1.93904,393.773,34.393,45.068,45.000,0.00,0.10,-272.75,-272.81,-12,518,-937,23.0,35.4,6.9,22.8,36.6,7.2,5.73,1.88,1.8,27.4
2015-09-05 00:33:00,0.0,1.91351,0.00144,387.840,0.056,1.2507,0.0045,139.998,45.000,31576.36745,1.93798,393.915,34.391,45.068,45.000,0.00,0.10,-272.74,-272.80,-12,519,-937,23.0,35.1,6.8,22.8,36.5,7.1,5.73,1.81,1.8,27.5
2015-09-05 00:34:00,0.0,1.91322,0.00161,387.955,0.057,1.2494,0.0050,139.995,45.000,31576.51446,1.93778,394.027,34.385,45.068,45.000,0.00,0.10,-272.74,-272.79,-12,519,-937,23.0,35.1,6.8,22.8,36.4,7.1,5.73,1.83,1.8,27.4
2015-09-05 00:35:00,0.0,1.91357,0.00151,387.886,0.065,1.2543,0.0048,140.000,45.000,31578.00085,1.93814,393.982,34.378,45.068,45.000,0.00,0.10,-272.75,-272.80,-12,519,-937,23.1,35.2,6.8,22.8,36.5,7.1,5.73,1.93,1.8,27.5
2015-09-05 00:36:00,0.0,1.91249,0.00089,387.977,0.063,1.2522,0.0045,140.000,45.000,31578.25057,1.93705,394.062,34.382,45.068,45.000,0.00,0.10,-272.75,-272.80,-12,519,-937,23.0,35.1,6.8,22.8,36.4,7.1,5.73,2.02,1.8,27.5
2015-09-05 00:37:00,0.0,1.91259,0.00075,388.016,0.080,1.2531,0.0048,139.996,45.000,31575.75583,1.93721,394.105,34.379,45.068,45.000,0.00,0.10,-272.74,-272.80,-11,519,-937,23.1,35.1,6.8,22.8,36.5,7.1,5.73,2.03,1.8,27.5
2015-09-05 00:38:00,0.0,1.91407,0.00142,388.047,0.062,1.2556,0.0046,140.000,45.000,31578.02266,1.93852,394.154,34.380,45.068,45.000,0.00,0.10,-272.74,-272.81,-12,519,-937,23.1,35.2,6.9,22.8,36.5,7.1,5.73,1.95,1.8,27.5
2015-09-05 00:39:00,0.0,1.91521,0.00113,388.048,0.086,1.2663,0.0035,139.999,45.000,31580.28639,1.94018,394.203,34.399,45.068,45.000,0.00,0.10,-272.74,-272.80,-12,518,-937,23.1,35.5,7.0,22.8,36.8,7.3,5.73,1.85,1.8,27.5
2015-09-05 00:40:00,0.0,1.91372,0.00116,388.259,0.089,1.2603,0.0044,140.000,45.000,31577.11531,1.93849,394.389,34.392,45.068,45.000,0.00,0.10,-272.73,-272.80,-12,519,-937,23.1,35.2,6.9,22.8,36.7,7.2,5.73,1.81,1.9,27.5
2015-09-05 00:41:00,0.0,1.91336,0.00114,388.291,0.054,1.2615,0.0040,139.999,45.000,31575.52112,1.93813,394.430,34.376,45.068,45.000,0.00,0.10,-272.74,-272.80,-12,519,-937,23.1,35.3,6.9,22.8,36.6,7.2,5.73,1.86,1.9,27.5
2015-09-05 00:42:00,0.0,1.91350,0.00104,388.235,0.055,1.2669,0.0045,139.997,45.000,31574.98263,1.93839,394.398,34.378,45.068,45.000,0.00,0.10,-272.74,-272.80,-12,519,-937,23.1,35.4,7.0,22.9,36.8,7.3,5.73,1.96,1.9,27.5
2015-09-05 00:43:00,0.0,1.91383,0.00169,388.240,0.092,1.2677,0.0082,139.999,45.000,31576.01584,1.93863,394.410,34.377,45.068,45.000,0.00,0.10,-272.74,-272.80,-12,519,-937,23.1,35.4,7.0,22.8,36.8,7.3,5.73,2.03,1.9,27.5
2015-09-05 00:44:00,0.0,1.91506,0.00114,388.291,0.056,1.2687,0.0042,139.998,45.000,31574.41793,1.93996,394.466,34.376,45.068,45.000,0.00,0.10,-272.74,-272.80,-12,519,-937,23.1,35.4,7.0,22.9,36.9,7.3,5.73,2.02,1.9,27.5
2015-09-05 00:45:00,0.0,1.91487,0.00185,388.300,0.079,1.2653,0.0050,139.998,45.000,31574.95406,1.93978,394.459,34.375,45.068,45.000,0.00,0.10,-272.74,-272.81,-12,519,-937,23.2,35.2,6.9,22.9,36.7,7.3,5.73,1.93,1.9,27.5
2015-09-05 00:46:00,0.0,1.91386,0.00090,388.421,0.042,1.2616,0.0034,139.999,45.000,31575.71910,1.93852,394.562,34.378,45.068,45.000,0.00,0.10,-272.74,-272.80,-12,519,-937,23.2,35.1,6.9,22.9,36.5,7.2,5.73,1.82,1.9,27.4
2015-09-05 00:47:00,0.0,1.91454,0.00139,388.406,0.079,1.2675,0.0044,139.999,45.000,31575.76436,1.93949,394.575,34.406,45.068,45.000,0.00,0.10,-272.74,-272.79,-12,519,-937,23.2,35.3,7.0,22.8,36.7,7.3,5.73,1.80,1.9,27.4
2015-09-05 00:48:00,0.0,1.91339,0.00117,388.545,0.058,1.2618,0.0029,139.997,45.000,31573.94181,1.93806,394.691,34.434,45.068,45.000,0.00,0.10,-272.74,-272.80,-12,519,-937,23.1,35.2,6.9,22.9,36.6,7.2,5.73,1.91,1.9,27.5
2015-09-05 00:49:00,0.0,1.91697,0.00143,388.367,0.089,1.2780,0.0047,139.999,45.000,31574.90410,1.94219,394.587,34.443,45.068,45.000,0.00,0.10,-272.75,-272.80,-12,519,-937,23.2,35.7,7.1,22.9,37.0,7.4,5.73,2.03,2.0,27.5
2015-09-05 00:50:00,0.0,1.91528,0.00107,388.634,0.042,1.2699,0.0034,139.999,45.000,31576.60559,1.94017,394.820,34.473,45.068,45.000,0.00,0.10,-272.73,-272.80,-12,519,-937,23.2,35.4,7.0,22.9,36.9,7.3,5.73,2.03,2.0,27.5
2015-09-05 00:51:00,0.0,1.91636,0.00091,388.618,0.064,1.2780,0.0055,139.999,45.000,31576.69579,1.94141,394.845,34.497,45.068,45.000,0.00,0.10,-272.73,-272.80,-12,519,-937,23.2,35.6,7.1,22.9,37.0,7.4,5.73,1.93,2.0,27.5
2015-09-05 00:52:00,0.0,1.91653,0.00075,388.548,0.065,1.2860,0.0059,139.996,45.000,31577.46258,1.94183,394.816,34.497,45.068,45.000,0.00,0.10,-272.74,-272.81,-12,519,-937,23.2,35.9,7.2,22.9,37.2,7.5,5.73,1.83,2.0,27.5
2015-09-05 00:53:00,0.0,1.91459,0.00165,388.543,0.093,1.2895,0.0081,139.999,45.000,31580.28953,1.93997,394.828,34.487,45.068,44.999,0.00,0.10,-272.73,-272.80,-12,519,-937,23.2,35.9,7.3,22.9,37.3,7.6,5.73,1.81,2.0,27.5
2015-09-05 00:54:00,0.0,1.91476,0.00111,388.471,0.119,1.2968,0.0085,139.996,45.000,31577.69331,1.94030,394.793,34.448,45.068,45.000,0.00,0.10,-272.73,-272.80,-12,519,-937,23.2,36.0,7.3,22.9,37.5,7.6,5.73,1.88,2.0,27.5
2015-09-05 00:55:00,0.0,1.91447,0.00132,388.616,0.061,1.2845,0.0050,139.999,45.000,31578.95338,1.93972,394.874,34.438,45.068,45.000,0.00,0.10,-272.75,-272.80,-12,519,-937,23.2,35.6,7.1,22.9,37.2,7.5,5.73,1.97,2.0,27.5
2015-09-05 00:56:00,0.0,1.91517,0.00128,388.567,0.100,1.2898,0.0091,140.000,45.000,31578.34597,1.94053,394.855,34.416,45.068,45.000,0.00,0.10,-272.75,-272.80,-12,519,-937,23.2,35.8,7.2,22.9,37.3,7.6,5.73,2.02,2.0,27.5
2015-09-05 00:57:00,0.0,1.91564,0.00141,388.493,0.102,1.2918,0.0058,140.000,45.000,31577.85693,1.94090,394.791,34.375,45.068,45.000,0.00,0.10,-272.74,-272.80,-12,519,-937,23.3,35.9,7.3,22.9,37.3,7.6,5.73,2.01,2.1,27.6
2015-09-05 00:58:00,0.0,1.91618,0.00107,388.468,0.054,1.2950,0.0045,139.998,45.000,31576.65128,1.94168,394.778,34.373,45.068,45.000,0.00,0.10,-272.74,-272.80,-12,519,-937,23.3,35.9,7.3,23.0,37.4,7.6,5.73,1.95,2.1,27.6
2015-09-05 00:59:00,0.0,1.91497,0.00106,388.458,0.044,1.2968,0.0036,140.000,45.000,31578.37788,1.94046,394.781,34.370,45.068,45.000,0.00,0.10,-272.74,-272.80,-12,519,-937,23.2,36.0,7.3,22.9,37.5,7.6,5.73,1.86,2.1,27.6
2015-09-05 01:00:00,0.0,1.91449,0.00130,388.519,0.104,1.2968,0.0077,139.999,45.000,31574.51532,1.94002,394.840,34.369,45.068,45.000,0.00,0.10,-272.74,-272.80,-12,519,-937,23.3,35.9,7.3,23.0,37.5,7.7,5.73,1.81,2.1,27.6
2015-09-05 01:01:00,0.0,1.91760,0.00148,388.259,0.086,1.3122,0.0054,139.999,45.000,31576.26036,1.94333,394.658,34.364,45.068,45.000,0.00,0.10,-272.73,-272.79,-12,519,-937,23.3,36.4,7.5,23.0,37.8,7.8,5.73,1.84,2.1,27.6
2015-09-05 01:02:00,0.0,1.91513,0.00097,388.453,0.087,1.2957,0.0082,140.001,45.000,31577.51375,1.94072,394.766,34.374,45.068,45.000,0.00,0.10,-272.74,-272.80,-12,519,-937,23.3,35.8,7.3,23.0,37.6,7.7,5.73,1.94,2.1,27.6
2015-09-05 01:03:00,0.0,1.91512,0.00079,388.550,0.047,1.2845,0.0045,140.001,45.000,31578.89265,1.94039,394.808,34.384,45.068,45.000,0.00,0.10,-272.74,-272.80,-12,519,-937,23.3,35.4,7.1,23.0,37.1,7.6,5.73,2.03,2.1,27.6
2015-09-05 01:04:00,0.0,1.91428,0.00114,388.543,0.063,1.2831,0.0050,139.998,45.000,31576.86107,1.93942,394.797,34.393,45.068,45.000,0.00,0.10,-272.73,-272.80,-13,519,-937,23.3,35.4,7.1,23.0,37.0,7.5,5.73,2.02,2.1,27.6
2015-09-05 01:05:00,0.0,1.91565,0.00114,388.404,0.100,1.2944,0.0077,140.000,45.000,31578.68020,1.94114,394.711,34.404,45.068,45.000,0.00,0.10,-272.74,-272.80,-13,519,-937,23.3,35.6,7.2,23.0,37.3,7.6,5.73,1.93,2.1,27.6
2015-09-05 01:06:00,0.0,1.91416,0.00110,388.547,0.041,1.2772,0.0025,139.999,45.000,31576.74817,1.93921,394.769,34.419,45.068,45.000,0.00,0.10,-272.74,-272.81,-13,519,-937,23.3,35.2,7.0,23.0,36.9,7.5,5.73,1.84,2.1,27.6
2015-09-05 01:07:00,0.0,1.91642,0.00217,388.523,0.065,1.2811,0.0043,139.999,45.000,31576.29019,1.94168,394.764,34.437,45.068,45.000,0.00,0.10,-272.73,-272.80,-12,519,-937,23.4,35.2,7.1,23.0,36.9,7.5,5.73,1.81,2.2,27.6
2015-09-05 01:08:00,0.0,1.91310,0.00086,388.758,0.041,1.2716,0.0039,139.998,45.000,31576.91889,1.93804,394.954,34.439,45.068,45.000,0.00,0.10,-272.74,-272.80,-12,519,-937,23.3,34.9,7.0,23.0,36.7,7.4,5.73,1.87,2.2,27.6
2015-09-05 01:09:00,0.0,1.91445,0.00096,388.704,0.082,1.2752,0.0055,140.002,45.000,31579.11876,1.93943,394.920,34.439,45.068,45.000,0.00,0.10,-272.75,-272.80,-12,519,-937,23.3,35.1,7.1,23.0,36.6,7.4,5.73,1.96,2.2,27.6
2015-09-05 01:10:00,0.0,1.91561,0.00079,388.590,0.049,1.2891,0.0038,139.998,45.000,31578.65918,1.94091,394.873,34.440,45.068,45.000,0.00,0.10,-272.74,-272.80,-12,519,-937,23.4,35.5,7.2,23.0,37.0,7.5,5.73,2.03,2.2,27.6
2015-09-05 01:11:00,0.0,1.91768,0.00109,388.549,0.062,1.2920,0.0046,139.998,45.000,31578.93913,1.94303,394.847,34.441,45.068,45.000,0.00,0.10,-272.73,-272.80,-12,519,-937,23.4,35.6,7.3,23.0,37.1,7.6,5.73,2.02,2.2,27.6
2015-09-05 01:12:00,0.0,1.91630,0.00139,388.620,0.131,1.2910,0.0085,140.001,45.000,31579.75825,1.94188,394.909,34.455,45.068,45.000,0.00,0.10,-272.74,-272.80,-12,519,-937,23.4,35.4,7.2,23.0,37.2,7.6,5.73,1.92,2.2,27.6
2015-09-05 01:13:00,0.0,1.91547,0.00101,388.722,0.063,1.2809,0.0036,139.998,45.000,31580.56975,1.94057,394.967,34.461,45.068,45.000,0.00,0.10,-272.74,-272.80,-12,519,-937,23.4,35.2,7.1,23.0,36.8,7.5,5.73,1.82,2.2,27.6
2015-09-05 01:14:00,0.0,1.91550,0.00107,388.696,0.040,1.2855,0.0045,140.000,45.000,31580.02640,1.94069,394.965,34.458,45.068,45.000,0.00,0.10,-272.74,-272.80,-12,519,-937,23.4,35.3,7.2,23.1,36.9,7.5,5.73,1.81,2.2,27.6
2015-09-05 01:15:00,0.0,1.91529,0.00158,388.693,0.075,1.2843,0.0055,139.999,45.000,31580.66265,1.94066,394.953,34.471,45.068,45.000,0.00,0.10,-272.74,-272.80,-13,519,-937,23.4,35.1,7.1,23.0,36.9,7.5,5.73,1.89,2.2,27.6
2015-09-05 01:16:00,0.0,1.91402,0.00117,388.752,0.054,1.2788,0.0036,140.000,45.000,31581.70773,1.93912,394.986,34.469,45.068,45.000,0.00,0.10,-272.74,-272.80,-13,520,-937,23.4,35.1,7.1,23.0,36.8,7.5,5.73,1.98,2.2,27.7
2015-09-05 01:17:00,0.0,1.91526,0.00107,388.594,0.067,1.2916,0.0048,140.003,45.000,31583.48092,1.94056,394.891,34.459,45.068,45.000,0.00,0.10,-272.74,-272.79,-13,520,-937,23.4,35.4,7.2,23.0,37.0,7.5,5.73,2.02,2.3,27.7
2015-09-05 01:18:00,0.0,1.91777,0.00125,388.449,0.085,1.3049,0.0062,139.999,45.000,31581.04747,1.94329,394.814,34.441,45.068,45.000,0.00,0.10,-272.74,-272.80,-13,520,-937,23.5,35.9,7.5,23.1,37.3,7.7,5.73,2.00,2.3,27.7
2015-09-05 01:19:00,0.0,1.91811,0.00212,388.321,0.105,1.3216,0.0049,139.998,45.000,31581.52639,1.94434,394.762,34.438,45.068,45.000,0.00,0.32,-270.81,-269.80,-12,520,-937,23.5,36.2,7.6,23.1,37.9,8.0,5.43,2.05,-4.4,27.7
2015-09-05 01:20:00,0.0,1.91511,0.00117,388.603,0.087,1.3041,0.0045,140.000,45.000,31582.10578,1.94074,394.962,34.430,45.068,45.000,0.00,0.10,-272.74,-272.80,-12,520,-937,23.4,35.7,7.4,23.1,37.5,7.8,5.73,1.85,2.3,27.7
2015-09-05 01:21:00,0.0,1.91652,0.00045,388.535,0.055,1.3155,0.0042,140.000,45.000,31579.67251,1.94239,394.953,34.424,45.068,45.000,0.00,0.10,-272.73,-272.80,-12,520,-937,23.4,36.0,7.5,23.1,37.6,7.9,5.73,1.80,2.3,27.7
2015-09-05 01:22:00,0.0,1.91501,0.00108,388.623,0.088,1.3062,0.0093,139.998,45.000,31578.23773,1.94076,394.993,34.423,45.068,45.000,0.00,0.10,-272.74,-272.80,-12,520,-937,23.5,35.6,7.4,23.1,37.5,7.8,5.73,1.85,2.3,27.6
2015-09-05 01:23:00,0.0,1.91463,0.00079,388.630,0.053,1.3025,0.0042,139.997,45.000,31577.91710,1.94022,394.983,34.439,45.068,45.000,0.00,0.10,-272.74,-272.80,-12,519,-937,23.5,35.5,7.3,23.1,37.3,7.7,5.73,1.95,2.3,27.7
2015-09-05 01:24:00,0.0,1.91470,0.00077,388.643,0.064,1.3019,0.0048,139.998,45.000,31579.61232,1.94027,394.994,34.438,45.068,45.000,0.00,0.10,-272.74,-272.79,-12,520,-937,23.5,35.6,7.4,23.1,37.2,7.7,5.73,2.03,2.3,27.7
2015-09-05 01:25:00,0.0,1.91508,0.00116,388.631,0.059,1.3001,0.0046,140.000,45.000,31581.38141,1.94057,394.973,34.438,45.068,45.000,0.00,0.10,-272.74,-272.80,-12,519,-937,23.5,35.5,7.4,23.1,37.2,7.7,5.73,2.01,2.3,27.7
2015-09-05 01:26:00,0.0,1.91611,0.00103,388.565,0.091,1.3113,0.0043,140.000,45.000,31582.28452,1.94200,394.959,34.439,45.068,45.000,0.00,0.10,-272.75,-272.81,-13,519,-937,23.5,35.8,7.4,23.1,37.4,7.8,5.73,1.93,2.3,27.7
2015-09-05 01:27:00,0.0,1.91454,0.00073,388.738,0.053,1.2998,0.0036,139.999,45.000,31582.87091,1.94007,395.078,34.436,45.068,45.000,0.00,0.10,-272.74,-272.80,-13,520,-937,23.5,35.4,7.3,23.1,37.2,7.7,5.73,1.85,2.4,27.7
2015-09-05 01:28:00,0.0,1.91395,0.00083,388.799,0.059,1.2991,0.0046,139.999,45.000,31583.90176,1.93954,395.136,34.396,45.068,45.000,0.00,0.10,-272.73,-272.79,-13,520,-937,23.5,35.4,7.3,23.1,37.1,7.7,5.73,1.82,2.4,27.7
2015-09-05 01:29:00,0.0,1.91478,0.00088,388.835,0.056,1.3006,0.0038,140.001,45.000,31582.79588,1.94025,395.182,34.375,45.068,45.000,0.00,0.10,-272.74,-272.80,-13,520,-937,23.5,35.5,7.4,23.2,37.1,7.7,5.73,1.85,2.4,27.7
2015-09-05 01:30:00,0.0,1.91497,0.00073,388.782,0.042,1.3110,0.0047,139.998,45.000,31582.01649,1.94081,395.178,34.375,45.068,45.000,0.00,0.10,-272.74,-272.80,-13,520,-937,23.5,35.7,7.5,23.2,37.4,7.8,5.73,1.92,2.4,27.7
2015-09-05 01:31:00,0.0,1.91512,0.00104,388.860,0.090,1.3092,0.0063,139.996,45.000,31580.47460,1.94089,395.250,34.375,45.068,45.000,0.00,0.10,-272.73,-272.79,-13,520,-937,23.5,35.6,7.4,23.2,37.4,7.8,5.73,2.00,2.4,27.7
2015-09-05 01:32:00,0.0,1.91533,0.00074,388.842,0.051,1.3116,0.0051,139.998,45.000,31582.94132,1.94112,395.245,34.374,45.068,45.000,0.00,0.10,-272.74,-272.80,-13,520,-937,23.5,35.7,7.5,23.2,37.3,7.8,5.73,2.02,2.4,27.8
2015-09-05 01:33:00,0.0,1.91419,0.00091,388.857,0.076,1.3096,0.0109,140.001,45.000,31583.62112,1.93994,395.249,34.375,45.068,45.000,0.00,0.10,-272.74,-272.80,-12,520,-937,23.6,35.5,7.4,23.2,37.4,7.8,5.73,1.98,2.5,27.7
2015-09-05 01:34:00,0.0,1.91564,0.00073,388.804,0.060,1.3111,0.0044,139.999,45.000,31582.63092,1.94146,395.205,34.375,45.068,45.000,0.00,0.10,-272.73,-272.80,-12,520,-937,23.6,35.6,7.4,23.2,37.3,7.8,5.73,1.90,2.5,27.7
2015-09-05 01:35:00,0.0,1.91515,0.00102,388.821,0.106,1.3087,0.0100,140.000,45.000,31582.18357,1.94081,395.209,34.379,45.068,45.000,0.00,0.10,-272.73,-272.80,-12,520,-937,23.6,35.7,7.5,23.2,37.3,7.8,5.73,1.82,2.5,27.8
2015-09-05 01:36:00,0.0,1.91514,0.00113,388.730,0.095,1.3201,0.0084,140.002,45.000,31581.93646,1.94119,395.174,34.389,45.068,45.000,0.00,0.10,-272.74,-272.80,-12,520,-937,23.6,35.8,7.6,23.2,37.6,7.9,5.73,1.82,2.5,27.8
2015-09-05 01:37:00,0.0,1.91522,0.00117,388.725,0.089,1.3199,0.0078,140.000,45.000,31581.18531,1.94117,395.165,34.375,45.068,45.000,0.00,0.10,-272.74,-272.79,-12,520,-937,23.6,35.8,7.5,23.2,37.5,7.9,5.73,1.88,2.5,27.7
2015-09-05 01:38:00,0.0,1.91476,0.00109,388.794,0.059,1.3090,0.0043,140.000,45.000,31581.46761,1.94046,395.186,34.375,45.068,45.000,0.00,0.10,-272.74,-272.79,-12,520,-937,23.6,35.5,7.4,23.2,37.3,7.8,5.73,1.96,2.5,27.8
2015-09-05 01:39:00,0.0,1.91763,0.00122,388.541,0.083,1.3276,0.0085,140.001,45.000,31582.51939,1.94372,395.022,34.375,45.068,45.000,0.00,0.10,-272.74,-272.80,-12,520,-937,23.6,36.2,7.7,23.2,37.6,8.0,5.73,2.02,2.5,27.8
2015-09-05 01:40:00,0.0,1.91561,0.00181,388.638,0.113,1.3196,0.0120,140.000,45.000,31581.71507,1.94171,395.076,34.374,45.068,45.000,0.00,0.10,-272.74,-272.80,-13,520,-937,23.6,35.7,7.5,23.2,37.6,8.0,5.73,2.02,2.5,27.8
2015-09-05 01:41:00,0.0,1.91457,0.00113,388.789,0.067,1.3072,0.0057,139.999,45.000,31580.61963,1.94024,395.169,34.375,45.068,45.000,0.00,0.10,-272.74,-272.79,-13,520,-937,23.6,35.4,7.4,23.2,37.2,7.8,5.73,1.94,2.5,27.8
2015-09-05 01:42:00,0.0,1.91741,0.00106,388.544,0.129,1.3273,0.0099,140.002,45.000,31584.15970,1.94350,395.022,34.373,45.068,45.000,0.00,0.10,-272.74,-272.80,-13,520,-937,23.6,36.0,7.7,23.3,37.6,8.0,5.73,1.84,2.6,27.8
2015-09-05 01:43:00,0.0,1.91583,0.00074,388.782,0.060,1.3099,0.0051,140.001,45.000,31583.81924,1.94164,395.175,34.368,45.068,45.000,0.00,0.10,-272.74,-272.80,-13,520,-937,23.6,35.4,7.4,23.2,37.3,7.8,5.73,1.80,2.5,27.8
2015-09-05 01:44:00,0.0,1.91680,0.00071,388.766,0.062,1.3124,0.0046,139.997,45.000,31581.91298,1.94263,395.171,34.372,45.068,45.000,0.00,0.10,-272.73,-272.79,-13,520,-937,23.7,35.5,7.5,23.3,37.2,7.8,5.73,1.86,2.6,27.8
2015-09-05 01:45:00,0.0,1.91626,0.00101,388.805,0.073,1.3128,0.0037,140.002,45.000,31584.56833,1.94213,395.212,34.368,45.068,45.000,0.00,0.10,-272.73,-272.80,-13,520,-937,23.7,35.5,7.5,23.2,37.3,7.8,5.73,1.95,2.6,27.8
2015-09-05 01:46:00,0.0,1.91478,0.00102,388.921,0.044,1.3037,0.0036,140.001,45.000,31583.24706,1.94042,395.285,34.369,45.068,45.000,0.00,0.10,-272.74,-272.80,-13,520,-937,23.6,35.2,7.4,23.2,37.0,7.7,5.73,2.01,2.6,27.8